Hourly Data Report for October 01, 2018

SHEARWATER RCS
NOVA SCOTIA
Current Station Operator: ECCC - MSC

44°37'47.000" N
63°30'48.000" W
24.00 m
8205092
71264
AAW

Download Data

Hourly Data (October 2018)
Hourly Data Report for October 1, 2018
TIME
LST
Temp Definition
°C
Dew Point Definition
°C
Rel Hum Definition
%
Precip. Amount Definition
mm

Wind Dir Definition
10's deg

Wind Spd Definition
km/h
Visibility Definition
km
Stn Press Definition
kPa
Hmdx Definition


Wind Chill Definition


Weather Definition


00:00 11.6 8.1 79 0.0 18 3   102.30     LegendNANA
01:00 11.2 8.4 83 0.0 19 2   102.30     LegendNANA
02:00 12.2 8.9 80 0.0 20 7   102.26     LegendNANA
03:00 12.3 8.7 79 0.0 23 7   102.27     LegendNANA
04:00 10.8 8.1 83 0.0 20 2   102.24     LegendNANA
05:00 11.7 9.0 83 0.0 25 6   102.28     LegendNANA
06:00 11.7 9.0 83 0.0 24 7   102.26     LegendNANA
07:00 12.1 8.2 77 0.0 29 6   102.31     LegendNANA
08:00 12.9 9.3 79 0.0 28 8   102.31     LegendNANA
09:00 13.2 9.0 76 0.0 30 8   102.34     LegendNANA
10:00 14.4 8.7 69 0.0 29 11   102.36     LegendNANA
11:00 15.0 7.8 62 0.0 28 8   102.35     LegendNANA
12:00 15.5 6.7 56 0.0 29 14   102.38     LegendNANA
13:00 15.3 4.5 48 0.0 30 11   102.35     LegendNANA
14:00 14.8 4.4 50 0.0 30 13   102.33     LegendNANA
15:00 14.3 4.3 51 0.0 31 11   102.35     LegendNANA
16:00 13.9 4.7 54 0.0 31 12   102.33     LegendNANA
17:00 13.7 5.1 56 0.0 31 11   102.33     LegendNANA
18:00 12.0 5.6 65 0.0 32 8   102.38     LegendNANA
19:00 11.2 5.6 68 0.0 33 10   102.43     LegendNANA
20:00 10.7 6.0 73 0.0 33 10   102.46     LegendNANA
21:00 9.2 5.9 80 0.0 32 4   102.48     LegendNANA
22:00 8.6 6.2 85 0.0 2 4   102.53     LegendNANA
23:00 8.6 6.5 86 0.0 1 5   102.54     LegendNANA

Notes on Data Quality.

Legend

  • E = Estimated
  • M = Missing
  • NA = Not Available*
  • [empty] = Indicates an unobserved value
Date modified: